Location: Baia Mare
(47.6567°N, 23.5850°E)
Time: 13:34:56
(UTC+02:00)

ISS - Pass Details

Date: 27 December 2018
Orbit: 401 x 408 km, 51.6° (Epoch: 16 December)

Event Time Altitude Azimuth Distance (km) Brightness Sun altitude
Exits shadow 06:56:19 10° 240° (WSW) 1,479 -1.3 -12.3°
Reaches altitude 10° 06:56:22 10° 240° (WSW) 1,463 -1.4 -12.3°
Maximum altitude 06:59:38 79° 154° (SSE) 417 -3.7 -11.8°
Drops below altitude 10° 07:02:56 10° 68° (ENE) 1,466 -0.3 -11.2°
Sets 07:05:01 0° 67° (ENE) 2,328 0.7 -10.9°
